Location: Hylvaty SDH
(49.9612°N, 16.4057°E)
Time: 03:37:07
(UTC+01:00)

S-56A Canister/Altair - Visible Passes

Search period start: 25 January 2020 00:00
Search period end: 04 February 2020 00:00
Orbit: 634 x 2498 km, 38.9° (Epoch: 24 January)

Date Brightness Start Highest point End Pass type
(mag) Time Alt. Az. Time Alt. Az. Time Alt. Az.
25 Jan 9.9 19:44:00 10° SSW 19:45:59 14° S 19:45:59 14° S visible
26 Jan 9.7 19:11:12 10° SSW 19:15:15 16° SSE 19:15:15 16° SSE visible
27 Jan 9.7 18:38:20 10° SSW 18:42:39 16° SSE 18:44:29 14° SE visible
27 Jan 10.2 20:40:48 10° SW 20:41:55 14° SW 20:41:55 14° SW visible
28 Jan 9.9 18:05:28 10° SSW 18:10:00 16° SSE 18:13:43 10° ESE visible
28 Jan 9.7 20:07:47 10° SW 20:11:09 21° SSW 20:11:09 21° SSW visible
29 Jan 10.0 17:32:35 10° S 17:37:19 16° SSE 17:41:13 10° ESE visible
29 Jan 9.3 19:34:42 10° SW 19:40:21 26° S 19:40:21 26° S visible
30 Jan 9.2 19:01:34 10° SW 19:08:00 27° S 19:09:32 24° SSE visible
30 Jan 10.3 21:05:52 10° WSW 21:06:59 14° WSW 21:06:59 14° WSW visible
31 Jan 9.4 18:28:22 10° SW 18:35:20 27° S 18:38:42 18° SE visible
31 Jan 9.7 20:32:42 10° WSW 20:36:08 22° SW 20:36:08 22° SW visible
01 Feb 9.8 17:55:08 10° SW 18:02:38 27° SSE 18:07:53 11° ESE visible
01 Feb 9.2 19:59:29 10° WSW 20:05:19 30° SSW 20:05:19 30° SSW visible
02 Feb 10.0 17:21:53 10° SW 17:29:52 28° SSE 17:35:42 10° ESE visible
02 Feb 9.0 19:26:12 10° WSW 19:33:20 33° S 19:34:28 31° SSE visible
02 Feb 10.6 21:31:35 10° WSW 21:31:54 11° WSW 21:31:54 11° WSW visible
03 Feb 9.2 18:52:50 10° WSW 19:00:40 34° S 19:03:37 24° SE visible
03 Feb 10.1 20:58:16 10° WSW 21:01:03 19° SW 21:01:03 19° SW visible
